sat.trackr.live / text

‹ back to catalog

IRIDIUM 134

NORAD 43075 · 2017-083F

PAYLOAD ACTIVE UNKNOWN

§ Identity

Operator
Country
US
Launch date
2017-12-23
Launch site
AFWTR
Launch vehicle
Mass (kg)
RCS (m²)

Purposes: comms

External: N2YO · Heavens-Above · Gunter

§ Orbital elements

Epoch: 2026-05-25T00:47:15.012096Z

Period
100.40 min
Inclination
86.3955°
Eccentricity
0.0002073
Mean motion
14.34215861 rev/d
Perigee alt
776.2 km
Apogee alt
779.2 km
Semi-major
7,155.8 km
B*
-7.6216e-5
RAAN
331.7513°
Arg perigee
85.3215°
Mean anomaly
274.8217°
Rev number
44,078

§ Raw data

IRIDIUM 1341 43075U 17083F   26145.03281264 -.00000194  00000+0 -76216-4 0  99932 43075  86.3955 331.7513 0002073  85.3215 274.8217 14.34215861440785

JSON: /api/v1/satellites/43075 · /tle

For live sub-satellite position, see the globe view (requires WebGL).

§ Visibility from observer

Set your observer location to see the next 7 days of passes ≥ 10°. The values pass through the URL so the page stays shareable.

No JS? Fill the form by hand. The geolocation button needs JavaScript.